Year,Month,Day,Hour,Minute,Value (Times are PST for temperature in C)
2017,04,18,10,38,10.10
2017,04,18,10,39,10.20
2017,04,18,10,40,10.40
2017,04,18,10,41,10.40
2017,04,18,10,42,10.40
2017,04,18,10,43,10.40
2017,04,18,10,44,10.40
2017,04,18,10,45,10.40
2017,04,18,10,46,10.40
2017,04,18,10,47,10.40
2017,04,18,10,48,10.40
2017,04,18,10,49,10.40
2017,04,18,10,50,10.50
2017,04,18,10,51,10.50
2017,04,18,10,52,10.60
2017,04,18,10,53,10.70
2017,04,18,10,54,10.70
2017,04,18,10,55,10.80
2017,04,18,10,56,10.90
2017,04,18,10,57,10.90
2017,04,18,10,58,10.90
2017,04,18,10,59,10.90
2017,04,18,11,00,11.00
2017,04,18,11,01,11.00
2017,04,18,11,02,11.00
2017,04,18,11,03,11.10
2017,04,18,11,04,11.10
2017,04,18,11,05,11.10
2017,04,18,11,06,11.10
2017,04,18,11,07,11.10
2017,04,18,11,08,11.10
2017,04,18,11,09,11.10
2017,04,18,11,10,11.10
2017,04,18,11,11,11.20
2017,04,18,11,12,11.20
2017,04,18,11,13,11.20
2017,04,18,11,14,11.20
2017,04,18,11,15,11.20
2017,04,18,11,16,11.20
2017,04,18,11,17,11.20
2017,04,18,11,18,11.10
2017,04,18,11,19,11.10
2017,04,18,11,20,11.10
2017,04,18,11,21,11.10
2017,04,18,11,22,11.20
2017,04,18,11,23,11.20
2017,04,18,11,24,11.20
2017,04,18,11,25,11.20
2017,04,18,11,26,11.20
2017,04,18,11,27,11.20
2017,04,18,11,28,11.20
2017,04,18,11,29,11.20
2017,04,18,11,30,11.20
2017,04,18,11,31,11.20
2017,04,18,11,32,11.20
2017,04,18,11,33,11.20
2017,04,18,11,34,11.20
2017,04,18,11,35,11.20
2017,04,18,11,36,11.20
2017,04,18,11,37,11.30
2017,04,18,11,38,11.30
2017,04,18,11,39,11.30
2017,04,18,11,40,11.30
2017,04,18,11,41,11.30
2017,04,18,11,42,11.30
2017,04,18,11,43,11.30
2017,04,18,11,44,11.30
2017,04,18,11,45,11.30
2017,04,18,11,46,11.30
2017,04,18,11,47,11.30
2017,04,18,11,48,11.30
2017,04,18,11,49,11.30
2017,04,18,11,50,11.30
2017,04,18,11,51,11.30
2017,04,18,12,08,10.40
2017,04,18,12,09,10.40
2017,04,18,12,10,10.50
2017,04,18,12,11,10.50
2017,04,18,12,12,10.60
2017,04,18,12,13,10.70
2017,04,18,12,14,10.70
2017,04,18,12,15,10.70
2017,04,18,12,16,10.70
2017,04,18,12,17,10.80
2017,04,18,12,18,10.80
2017,04,18,12,19,10.80
2017,04,18,12,20,10.80
2017,04,18,12,21,10.80
2017,04,18,12,22,10.90
2017,04,18,12,23,10.90
2017,04,18,12,24,10.80
2017,04,18,12,25,10.90
2017,04,18,12,26,10.80
2017,04,18,12,27,10.90
2017,04,18,12,28,11.00
2017,04,18,12,29,10.90
2017,04,18,12,30,10.70
2017,04,18,12,31,10.70
2017,04,18,12,32,10.80
2017,04,18,12,33,10.90
2017,04,18,12,34,10.90
2017,04,18,12,35,11.00
2017,04,18,12,36,11.10
2017,04,18,12,37,11.20
2017,04,18,12,38,11.30
2017,04,18,12,39,11.30
2017,04,18,12,40,11.20
2017,04,18,12,41,11.10
2017,04,18,12,42,11.10
2017,04,18,12,43,11.20
2017,04,18,12,44,11.10
2017,04,18,12,45,11.10
2017,04,18,12,46,11.10
2017,04,18,12,47,11.10
2017,04,18,12,48,11.00
2017,04,18,12,49,10.90
2017,04,18,12,50,11.00
2017,04,18,12,51,10.90
2017,04,18,12,52,10.90
2017,04,18,12,53,10.90
2017,04,18,12,54,11.00
2017,04,18,12,55,11.10
2017,04,18,12,56,11.10
2017,04,18,12,57,11.10
2017,04,18,12,58,11.10
2017,04,18,12,59,11.20
2017,04,18,13,00,11.20
2017,04,18,13,01,11.20
2017,04,18,13,02,11.10
2017,04,18,13,03,11.10
2017,04,18,13,04,11.10
2017,04,18,13,05,11.10
2017,04,18,13,06,11.10
2017,04,18,13,07,11.10
2017,04,18,13,08,11.10
2017,04,18,13,09,11.10
2017,04,18,13,10,11.10
2017,04,18,13,11,11.20
2017,04,18,13,12,11.20
2017,04,18,13,13,11.30
2017,04,18,13,14,11.40
2017,04,18,13,15,11.60
2017,04,18,13,16,11.80
2017,04,18,13,17,12.00
2017,04,18,13,18,12.00
2017,04,18,13,19,12.00
2017,04,18,13,20,12.00
2017,04,18,13,21,12.10
2017,04,18,13,22,12.00
2017,04,18,13,23,12.10
2017,04,18,13,24,12.10
2017,04,18,13,25,12.20
2017,04,18,13,26,12.30
2017,04,18,13,27,12.20
2017,04,18,13,28,12.30
2017,04,18,13,29,12.40
2017,04,18,13,30,12.40
2017,04,18,13,31,12.50
2017,04,18,13,32,12.60
2017,04,18,13,33,12.70
2017,04,18,13,34,12.80
2017,04,18,13,35,12.90
2017,04,18,13,36,12.90
2017,04,18,13,37,12.90
2017,04,18,13,38,12.90
2017,04,18,13,39,12.90
2017,04,18,13,40,12.90
2017,04,18,13,41,13.00
2017,04,18,13,42,13.00
2017,04,18,13,43,13.10
2017,04,18,13,44,13.10
2017,04,18,13,45,13.10
2017,04,18,13,46,13.10
2017,04,18,13,47,13.10
2017,04,18,13,48,13.20
2017,04,18,13,49,13.20
2017,04,18,13,50,13.30
2017,04,18,13,51,13.30
2017,04,18,13,52,13.30
2017,04,18,13,53,13.30
2017,04,18,13,54,13.30
2017,04,18,13,55,13.30
2017,04,18,13,56,13.20
2017,04,18,13,57,13.00
2017,04,18,13,58,13.00
2017,04,18,13,59,12.90
2017,04,18,14,00,12.80
2017,04,18,14,01,12.80
2017,04,18,14,02,12.80
2017,04,18,14,03,12.80
2017,04,18,14,04,12.70
2017,04,18,14,05,12.70
2017,04,18,14,06,12.60
2017,04,18,14,07,12.60
2017,04,18,14,08,12.50
2017,04,18,14,09,12.50
2017,04,18,14,10,12.40
2017,04,18,14,11,12.50
2017,04,18,14,12,12.60
2017,04,18,14,13,12.70
2017,04,18,14,14,12.80
2017,04,18,14,15,12.80
2017,04,18,14,16,12.90
2017,04,18,14,17,13.00
2017,04,18,14,18,13.10
2017,04,18,14,19,13.10
2017,04,18,14,20,13.00
2017,04,18,14,21,12.90
2017,04,18,14,22,12.80
2017,04,18,14,23,12.80
2017,04,18,14,24,12.70
2017,04,18,14,25,12.70
2017,04,18,14,26,12.60
2017,04,18,14,27,12.60
2017,04,18,14,28,12.60
2017,04,18,14,29,12.60
2017,04,18,14,30,12.50
2017,04,18,14,31,12.60
2017,04,18,14,32,12.60
2017,04,18,14,33,12.60
2017,04,18,14,34,12.70
2017,04,18,14,35,12.70
2017,04,18,14,36,12.80
2017,04,18,14,37,12.80
2017,04,18,14,38,13.00
2017,04,18,14,39,13.10
2017,04,18,14,40,13.20
2017,04,18,14,41,13.30
2017,04,18,14,42,13.40
2017,04,18,14,43,13.50
2017,04,18,14,44,13.60
2017,04,18,14,45,13.60
2017,04,18,14,46,13.70
2017,04,18,14,47,13.70
2017,04,18,14,48,13.80
2017,04,18,14,49,13.80
2017,04,18,14,50,13.90
2017,04,18,14,51,13.90
2017,04,18,14,52,13.90
2017,04,18,14,53,13.80
2017,04,18,14,54,13.70
2017,04,18,14,55,13.70
2017,04,18,14,56,13.60
2017,04,18,14,57,13.60
2017,04,18,14,58,13.60
2017,04,18,14,59,13.50
2017,04,18,15,00,13.40
2017,04,18,15,01,13.20
2017,04,18,15,02,13.10
2017,04,18,15,03,13.00
2017,04,18,15,04,13.00
2017,04,18,15,05,12.90
2017,04,18,15,06,12.90
2017,04,18,15,07,12.90
2017,04,18,15,08,13.00
2017,04,18,15,09,13.00
2017,04,18,15,10,13.10
2017,04,18,15,11,13.20
2017,04,18,15,12,13.20
2017,04,18,15,13,13.20
2017,04,18,15,14,13.20
2017,04,18,15,15,13.20
2017,04,18,15,16,13.20
2017,04,18,15,17,13.20
2017,04,18,15,18,13.20
2017,04,18,15,19,13.20
2017,04,18,15,20,13.20
2017,04,18,15,21,13.20
2017,04,18,15,22,13.20
2017,04,18,15,23,13.20
2017,04,18,15,24,13.20
2017,04,18,15,25,13.20
2017,04,18,15,26,13.20
2017,04,18,15,27,13.20
2017,04,18,15,28,13.20
2017,04,18,15,29,13.10
2017,04,18,15,30,13.10
2017,04,18,15,31,13.10
2017,04,18,15,32,13.10
2017,04,18,15,33,13.10
2017,04,18,15,34,13.10
2017,04,18,15,35,13.20
2017,04,18,15,36,13.20
2017,04,18,15,37,13.20
2017,04,18,15,38,13.20
2017,04,18,15,39,13.20
2017,04,18,15,40,13.20
2017,04,18,15,41,13.30
2017,04,18,15,42,13.30
2017,04,18,15,43,13.30
2017,04,18,15,44,13.40
2017,04,18,15,45,13.40
2017,04,18,15,46,13.50
2017,04,18,15,47,13.60
2017,04,18,15,48,13.60
2017,04,18,15,49,13.60
2017,04,18,15,50,13.60
2017,04,18,15,51,13.60
2017,04,18,15,52,13.70
2017,04,18,15,53,13.70
2017,04,18,15,54,13.80
2017,04,18,15,55,13.80
2017,04,18,15,56,13.90
2017,04,18,15,57,13.90
2017,04,18,15,58,14.00
2017,04,18,15,59,14.00
2017,04,18,16,00,14.00
2017,04,18,16,01,14.00
2017,04,18,16,02,14.00
2017,04,18,16,03,14.00
2017,04,18,16,04,13.90
2017,04,18,16,05,13.90
2017,04,18,16,06,13.90
2017,04,18,16,07,13.90
2017,04,18,16,08,13.90
2017,04,18,16,09,13.90
2017,04,18,16,10,13.80
2017,04,18,16,11,13.80
2017,04,18,16,12,13.80
2017,04,18,16,13,13.80
2017,04,18,16,14,13.70
2017,04,18,16,15,13.80
2017,04,18,16,16,13.80
2017,04,18,16,17,13.80
2017,04,18,16,18,13.80
2017,04,18,16,19,13.80
2017,04,18,16,20,13.80
2017,04,18,16,21,13.70
2017,04,18,16,22,13.70
2017,04,18,16,23,13.70
2017,04,18,16,24,13.70
2017,04,18,16,25,13.70
2017,04,18,16,26,13.70
2017,04,18,16,27,13.70
2017,04,18,16,28,13.60
2017,04,18,16,29,13.60
2017,04,18,16,30,13.60
2017,04,18,16,31,13.50
2017,04,18,16,32,13.50
2017,04,18,16,33,13.50
2017,04,18,16,34,13.50
2017,04,18,16,35,13.60
2017,04,18,16,36,13.60
2017,04,18,16,37,13.60
2017,04,18,16,38,13.60
2017,04,18,16,39,13.60
2017,04,18,16,40,13.60
2017,04,18,16,41,13.60
2017,04,18,16,42,13.60
2017,04,18,16,43,13.60
2017,04,18,16,44,13.60
2017,04,18,16,45,13.50
2017,04,18,16,46,13.50
2017,04,18,16,47,13.40
2017,04,18,16,48,13.40
2017,04,18,16,49,13.40
2017,04,18,16,50,13.40
2017,04,18,16,51,13.40
2017,04,18,16,52,13.40
2017,04,18,16,53,13.50
2017,04,18,16,54,13.50
2017,04,18,16,55,13.60
2017,04,18,16,56,13.70
2017,04,18,16,57,13.80
2017,04,18,16,58,13.90
2017,04,18,16,59,14.00
2017,04,18,17,00,14.10
2017,04,18,17,01,14.10
2017,04,18,17,02,14.10
2017,04,18,17,03,14.10
2017,04,18,17,04,14.10
2017,04,18,17,05,14.10
2017,04,18,17,06,14.20
2017,04,18,17,07,14.20
2017,04,18,17,08,14.10
2017,04,18,17,09,14.10
2017,04,18,17,10,14.10
2017,04,18,17,11,14.10
2017,04,18,17,12,14.00
2017,04,18,17,13,13.90
2017,04,18,17,14,13.80
2017,04,18,17,15,13.70
2017,04,18,17,16,13.60
2017,04,18,17,17,13.60
2017,04,18,17,18,13.50
2017,04,18,17,19,13.50
2017,04,18,17,20,13.50
2017,04,18,17,21,13.50
2017,04,18,17,22,13.50
2017,04,18,17,23,13.50
2017,04,18,17,24,13.50
2017,04,18,17,25,13.50
2017,04,18,17,26,13.40
2017,04,18,17,27,13.40
2017,04,18,17,28,13.40
2017,04,18,17,29,13.40
2017,04,18,17,30,13.40
2017,04,18,17,31,13.40
2017,04,18,17,32,13.40
2017,04,18,17,33,13.40
2017,04,18,17,34,13.30
2017,04,18,17,35,13.30
2017,04,18,17,36,13.30
2017,04,18,17,37,13.20
2017,04,18,17,38,13.20
2017,04,18,17,39,13.20
2017,04,18,17,40,13.10
2017,04,18,17,41,13.10
2017,04,18,17,42,13.00
2017,04,18,17,43,12.90
2017,04,18,17,44,12.80
2017,04,18,17,45,12.80
2017,04,18,17,46,12.70
2017,04,18,17,47,12.70
2017,04,18,17,48,12.60
2017,04,18,17,49,12.60
2017,04,18,17,50,12.60
2017,04,18,17,51,12.50
2017,04,18,17,52,12.50
2017,04,18,17,53,12.40
2017,04,18,17,54,12.40
2017,04,18,17,55,12.30
2017,04,18,17,56,12.30
2017,04,18,17,57,12.30
2017,04,18,17,58,12.30
2017,04,18,17,59,12.30
2017,04,18,18,00,12.30
2017,04,18,18,01,12.30
2017,04,18,18,02,12.30
2017,04,18,18,03,12.30
2017,04,18,18,04,12.30
2017,04,18,18,05,12.20
2017,04,18,18,06,12.20
2017,04,18,18,07,12.20
2017,04,18,18,08,12.10
2017,04,18,18,09,12.10
2017,04,18,18,10,12.10
2017,04,18,18,11,12.10
2017,04,18,18,12,12.00
2017,04,18,18,13,12.00
2017,04,18,18,14,11.90
2017,04,18,18,15,11.90
2017,04,18,18,16,11.80
2017,04,18,18,17,11.80
2017,04,18,18,18,11.70
2017,04,18,18,19,11.70
2017,04,18,18,20,11.70
2017,04,18,18,21,11.70
2017,04,18,18,22,11.70
2017,04,18,18,23,11.70
2017,04,18,18,24,11.70
2017,04,18,18,25,11.70
2017,04,18,18,26,11.70
2017,04,18,18,27,11.70
2017,04,18,18,28,11.70
2017,04,18,18,29,11.70
2017,04,18,18,30,11.70
2017,04,18,18,31,11.70
2017,04,18,18,32,11.70
2017,04,18,18,33,11.70
2017,04,18,18,34,11.70
2017,04,18,18,35,11.70
2017,04,18,18,36,11.80
2017,04,18,18,37,11.80
2017,04,18,18,38,11.80
2017,04,18,18,39,11.90
2017,04,18,18,40,11.90
2017,04,18,18,41,11.90
2017,04,18,18,42,11.90
2017,04,18,18,43,11.90
2017,04,18,18,44,12.00
2017,04,18,18,45,11.90
2017,04,18,18,46,12.00
2017,04,18,18,47,12.00
2017,04,18,18,48,12.10
2017,04,18,18,49,12.10
2017,04,18,18,50,12.10
2017,04,18,18,51,12.10
2017,04,18,18,52,12.10
2017,04,18,18,53,12.20
2017,04,18,18,54,12.20
2017,04,18,18,55,12.20
2017,04,18,18,56,12.20
2017,04,18,18,57,12.20
2017,04,18,18,58,12.30
2017,04,18,18,59,12.30
2017,04,18,19,00,12.30
2017,04,18,19,01,12.30
2017,04,18,19,02,12.40
2017,04,18,19,03,12.40
2017,04,18,19,04,12.40
2017,04,18,19,05,12.40
2017,04,18,19,06,12.40
2017,04,18,19,07,12.40
2017,04,18,19,08,12.40
2017,04,18,19,09,12.40
2017,04,18,19,10,12.40
2017,04,18,19,11,12.40
2017,04,18,19,12,12.40
